This demonstration page uses our WeatherBlox Daily Observations layout. Learn more.

Left ArrowRight Arrow

Hourly Observations for June 4, 2015

Temp ( °F °C ) Dew Point ( °F °C ) Humidity (%) Winds ( mph kmh ) Pressure ( in mb ) Visibility ( mi km ) Precip ( " mm )
12:51 am 00:51 Clear 73 22.8 19 -7.2 13 13 NNW 8 13 29.68 1005 10 16 0.00 0.00
1:51 am 01:51 Clear 69 20.6 19 -7.2 15 15 Calm 29.68 1005 10 16 0.00 0.00
2:51 am 02:51 Clear 66 18.9 16 -8.9 14 14 SSE 3 6 29.70 1006 10 16 0.00 0.00
3:51 am 03:51 Clear 62 16.7 17 -8.3 17 17 SE 10 17 29.71 1006 10 16 0.00 0.00
4:51 am 04:51 Clear 60 15.6 16 -8.9 18 18 SSE 7 11 29.73 1007 10 16 0.00 0.00
5:51 am 05:51 Sunny 63 17.2 18 -7.8 17 17 E 6 9 29.76 1008 10 16 0.00 0.00
6:51 am 06:51 Sunny 74 23.3 21 -6.1 14 14 E 6 9 29.74 1007 10 16 0.00 0.00
7:51 am 07:51 Sunny 82 27.8 21 -6.1 10 10 ESE 9 15 29.75 1007 10 16 0.00 0.00
8:51 am 08:51 Sunny 85 29.4 21 -6.1 9 9 E 6 9 29.75 1007 10 16 0.00 0.00
9:51 am 09:51 Sunny 87 30.6 19 -7.2 8 8 E 6 9 29.75 1007 10 16 0.00 0.00
10:51 am 10:51 Sunny 90 32.2 21 -6.1 8 8 SSE 9 15 29.75 1008 10 16 0.00 0.00
11:51 am 11:51 Sunny 91 32.8 24 -4.4 9 9 ESE 7 11 29.73 1007 10 16 0.00 0.00
12:51 pm 12:51 Sunny 93 33.9 26 -3.3 9 9 NE 5 7 29.71 1006 10 16 0.00 0.00
1:51 pm 13:51 Sunny 94 34.4 26 -3.3 9 9 NNW 13 20 29.70 1006 10 16 0.00 0.00
2:51 pm 14:51 Mostly Sunny 94 34.4 26 -3.3 9 9 VRB 3 6 29.68 1005 10 16 0.00 0.00
3:51 pm 15:51 Mostly Cloudy 93 33.9 33 0.6 12 12 WNW 12 19 29.68 1005 10 16 0.00 0.00
4:21 pm 16:21 Mostly Cloudy 91 32.8 36 2.2 14 14 N 17 28 29.59 1002 10 16 0.00 0.00
4:51 pm 16:51 Mostly Sunny 90 32.2 38 3.3 16 16 WNW 21 33 29.70 1006 10 16 0.00 0.00
5:51 pm 17:51 Mostly Sunny 84 28.9 40 4.4 21 21 WNW 22 35 29.72 1007 10 16 0.00 0.00
6:51 pm 18:51 Mostly Cloudy 83 28.3 36 2.2 19 19 WNW 25 41 29.73 1007 10 16 0.00 0.03
7:51 pm 19:51 Mostly Cloudy 81 27.2 37 2.8 21 21 NNW 18 30 29.74 1007 10 16 0.00 0.00
8:51 pm 20:51 Mostly Clear 80 26.7 39 3.9 23 23 NW 18 30 29.75 1008 10 16 0.00 0.00
9:51 pm 21:51 Mostly Clear 78 25.6 36 2.2 22 22 WNW 17 28 29.77 1008 10 16 0.00 0.00
10:51 pm 22:51 Clear 77 25 39 3.9 26 26 NW 17 28 29.79 1009 10 16 0.00 0.00
11:51 pm 23:51 Cloudy with Light Rain 76 24.4 43 6.1 31 31 NNW 14 22 29.79 1009 10 16 0.00 0.03

Powered by AerisWeather